World > North America > United States > North Carolina   Town of Apex, North Carolina

Hourly Apex, NC Regional Weather

Feedback E-mail the Weather

Latest News

Apex, NC Weather Maps

°F °C°F °C
Apex Weather Map
UTC Time: 5/25/2022, 23:26
Your Time:

Apex, NC Regional Weather

Expires:202205260000;;580280
ASUS42 KRAH 252310
RWRRAH
NORTH CAROLINA WEATHER ROUNDUP
NATIONAL WEATHER SERVICE RALEIGH NC
700 PM EDT WED MAY 25 2022

NOTE: "FAIR" INDICATES FEW OR NO CLOUDS BELOW 12,000 FEET WITH NO
SIGNIFICANT WEATHER AND/OR OBSTRUCTIONS TO VISIBILITY.


NCZ021-022-025-041-071-084-088-260000-
CENTRAL NORTH CAROLINA
  
CITY           SKY/WX    TMP DP  RH WIND       PRES   REMARKS
CHARLOTTE      CLOUDY    72  62  71 E8        30.21F                  
GREENSBORO     CLOUDY    64  58  80 E8        30.25R                  
WINSTON-SALEM  CLOUDY    68  59  73 E8        30.26R                  
RALEIGH-DURHAM CLOUDY    66  60  81 NE9       30.25S                  
FORT BRAGG     CLOUDY    71  62  71 NE10      30.20R                  
FAYETTEVILLE   MOSUNNY   75  61  61 NE8       30.20R                  
BURLINGTON     CLOUDY    65  59  81 NE7       30.25R                  
ROXBORO        CLOUDY    61  59  94 NE5       30.29S                  
HENDERSON      CLOUDY    61  61  99 N3        30.27S                  
LOUISBURG      CLOUDY    64  61  88 N8        30.28S                  
LAURINBURG     CLOUDY    79  63  57 E8        30.19R                  
$$
 

SKY/WX - Weather  TMP - Temperature  DP - Dew Point  RH - Humidity
WIND - Wind Direction/Speed PRES - Barometric Pressure VSB - Visibility
WCI - Wind Chill Index E13G22 Wind - East Wind 13 mph/Gusts of 22 mph

Trending Headlines

Apex Radar Loop



Apex Quick Facts


National Two Day Weather Forecast


E-mail the Apex Weather Forecast

Voice your opinion or tell us about page issues...